Location: Bosmont
(49.7318°N, 3.8587°E)
Time: 00:35:42
(UTC+00:00)

Gblst 52 Del rocket - Pass Details

Date: 08 February 2023
Orbit: 805 x 1364 km, 51.5° (Epoch: 21 March)

Event Time Altitude Azimuth Distance (km) Brightness Sun altitude
Rises 19:52:34 0° 286° (WNW) 3,358 8.5 -29.6°
Reaches altitude 10° 19:55:03 10° 286° (WNW) 2,400 7.5 -30.0°
Enters shadow 19:59:35 62° 287° (WNW) 907 4.5 -30.7°
